AE5PL Weather Reports


time (UTC)temp
C
wind
direction
speed
KPH
gust
KPH
rain 1hr
cm
rain 24hr
cm
rain mn
cm
humidity
%
barometer
mb
20260509064647 20 22 3.2 8.0 0.00 1.60 0.00 92 1010.5
20260509064147 20 22 4.8 9.7 0.00 1.60 0.00 92 1010.5
20260509063647 20 360 4.8 8.0 0.00 1.60 0.00 92 1010.5
20260509063147 20 180 1.6 3.2 0.00 1.60 0.00 91 1010.1
20260509062647 20 0 0.0 0.0 0.00 1.60 0.00 92 1009.9
20260509062147 20 180 0.0 3.2 0.00 1.60 0.00 91 1009.6
20260509061647 20 180 3.2 6.4 0.00 1.60 0.00 92 1009.5
20260509061147 20 180 4.8 9.7 0.00 1.60 0.00 92 1009.2
20260509060647 20 180 4.8 9.7 0.00 1.60 0.00 92 1009.1
20260509060147 20 180 3.2 6.4 0.00 1.60 0.00 91 1009.1
20260509055647 20 180 4.8 8.0 0.00 1.60 0.00 92 1009.3
20260509055147 20 180 4.8 8.0 0.00 1.60 0.00 92 1009.5
20260509054647 20 180 1.6 6.4 0.00 1.60 0.00 91 1009.5
20260509054147 20 180 3.2 6.4 0.00 1.60 0.00 91 1009.6
20260509053647 20 180 3.2 6.4 0.00 1.60 0.00 91 1009.9
20260509053147 20 0 0.0 0.0 0.00 1.60 0.00 91 1010.1
20260509052647 20 0 0.0 0.0 0.00 1.60 0.00 91 1010.1
20260509052147 20 0 0.0 0.0 0.00 1.60 0.00 91 1010.4
20260509051647 20 0 0.0 0.0 0.00 1.60 0.00 91 1010.3
20260509051147 20 0 0.0 0.0 0.00 1.60 0.00 91 1010.4
20260509050647 20 270 1.6 3.2 0.00 1.60 0.00 91 1010.4
20260509050147 20 270 1.6 4.8 0.00 1.60 0.00 91 1010.3
20260509045647 20 0 0.0 0.0 0.00 1.60 1.60 91 1010.0
20260509045147 20 0 0.0 0.0 0.00 1.60 1.60 91 1009.9
20260509044647 20 0 0.0 0.0 0.03 1.60 1.60 91 1009.9
20260509044147 20 0 0.0 0.0 0.03 1.60 1.60 90 1010.1
20260509043647 20 0 0.0 0.0 0.03 1.60 1.60 90 1009.9
20260509043147 20 0 0.0 0.0 0.03 1.60 1.60 90 1009.9
20260509042647 20 0 0.0 0.0 0.03 1.60 1.60 90 1009.8
20260509042147 20 337 0.0 1.6 0.03 1.60 1.60 90 1009.6
20260509041647 20 0 0.0 0.0 0.03 1.60 1.60 89 1009.6
20260509041147 20 0 0.0 0.0 0.03 1.60 1.60 89 1009.7
20260509040647 20 0 0.0 0.0 0.03 1.60 1.60 89 1009.7
20260509040147 20 45 3.2 4.8 0.03 1.60 1.60 88 1009.3
20260509035647 20 45 3.2 4.8 0.03 1.60 1.60 88 1009.1
20260509035147 20 90 8.0 12.9 0.03 1.60 1.60 88 1008.8
20260509034647 20 157 9.7 16.1 0.00 1.57 1.57 87 1008.9
20260509034147 20 180 6.4 9.7 0.00 1.57 1.57 87 1009.5
20260509033647 21 135 8.0 12.9 0.00 1.57 1.57 86 1009.5
20260509033147 20 157 9.7 12.9 0.00 1.57 1.57 86 1009.7
20260509032647 20 157 8.0 12.9 0.00 1.57 1.57 86 1009.6
20260509032147 21 135 3.2 6.4 0.00 1.57 1.57 85 1009.9
20260509031647 21 135 3.2 4.8 0.00 1.57 1.57 85 1009.4
20260509031147 21 180 3.2 3.2 0.00 1.57 1.57 85 1009.3
20260509030647 21 0 0.0 0.0 0.00 1.57 1.57 84 1009.6
20260509030147 21 0 0.0 0.0 0.00 1.57 1.57 84 1009.8
20260509025647 21 0 0.0 0.0 0.00 1.57 1.57 85 1009.9
20260509025147 21 0 0.0 0.0 0.00 1.57 1.57 85 1009.8
20260509024647 21 45 1.6 3.2 0.00 1.57 1.57 84 1009.8
20260509024147 21 0 0.0 0.0 0.00 1.57 1.57 84 1009.7
20260509023647 21 0 0.0 0.0 0.00 1.57 1.57 84 1009.6
20260509023147 21 0 0.0 0.0 0.00 1.57 1.57 84 1009.5
20260509022647 21 45 3.2 3.2 0.00 1.57 1.57 84 1009.4
20260509022147 21 45 3.2 6.4 0.00 1.57 1.57 83 1009.3
20260509021647 21 0 0.0 0.0 0.00 1.57 1.57 82 1009.1
20260509021147 21 0 0.0 0.0 0.00 1.57 1.57 81 1008.9
20260509020647 21 157 1.6 3.2 0.00 1.57 1.57 81 1008.6
20260509020147 21 157 3.2 6.4 0.00 1.57 1.57 81 1008.5
20260509015647 21 180 3.2 8.0 0.00 1.57 1.57 81 1008.4
20260509015147 21 180 4.8 6.4 0.00 1.57 1.57 80 1008.3
20260509014647 21 157 3.2 6.4 0.00 1.57 1.57 80 1008.4
20260509014147 21 0 0.0 0.0 0.00 1.57 1.57 80 1008.6
20260509013647 21 0 0.0 0.0 0.00 1.57 1.57 79 1008.5
20260509013147 21 157 0.0 3.2 0.00 1.57 1.57 79 1008.3
20260509012647 22 0 0.0 0.0 0.00 1.57 1.57 79 1008.3
20260509012147 22 180 0.0 4.8 0.00 1.57 1.57 78 1008.3
20260509011647 22 180 0.0 3.2 0.00 1.57 1.57 78 1008.2
20260509011147 22 0 0.0 0.0 0.00 1.57 1.57 77 1008.2
20260509010647 22 0 0.0 0.0 0.00 1.57 1.57 77 1008.3
20260509010147 22 0 0.0 0.0 0.00 1.57 1.57 76 1008.3
20260509005647 22 180 3.2 6.4 0.00 1.57 1.57 76 1008.2
20260509005147 22 180 1.6 9.7 0.00 1.57 1.57 75 1008.1
20260509004647 22 180 3.2 8.0 0.00 1.57 1.57 75 1008.1
20260509004147 22 157 8.0 16.1 0.00 1.57 1.57 75 1008.0
20260509003647 22 180 9.7 16.1 0.00 1.57 1.57 74 1007.9
20260509003147 22 180 3.2 12.9 0.00 1.57 1.57 75 1007.8
20260509002647 23 180 4.8 11.3 0.00 1.57 1.57 74 1007.8
20260509002147 23 202 3.2 11.3 0.00 1.57 1.57 74 1007.8
20260509001647 23 180 4.8 16.1 0.00 1.57 1.57 74 1007.8
20260509001147 23 180 4.8 9.7 0.00 1.57 1.57 74 1007.9
20260509000647 23 225 4.8 14.5 0.00 1.57 1.57 73 1007.9
20260509000147 23 157 3.2 9.7 0.00 1.57 1.57 73 1007.9
20260508235647 23 180 4.8 17.7 0.00 1.57 1.57 73 1007.9
20260508235147 23 180 8.0 19.3 0.00 1.57 1.57 73 1007.9
20260508234647 23 225 4.8 16.1 0.00 1.57 1.57 72 1007.8
20260508234147 23 180 11.3 20.9 0.00 1.57 1.57 72 1007.8
20260508233647 24 157 4.8 16.1 0.00 1.57 1.57 70 1007.9
20260508233147 24 202 3.2 14.5 0.00 1.57 1.57 71 1008.0
20260508232647 24 202 6.4 17.7 0.00 1.57 1.57 71 1008.0
20260508232147 24 225 9.7 25.7 0.00 1.57 1.57 71 1008.0
20260508231647 24 157 12.9 20.9 0.00 1.57 1.57 71 1008.0
20260508231147 24 180 12.9 19.3 0.00 1.57 1.57 69 1008.0
20260508230647 24 202 8.0 17.7 0.00 1.57 1.57 70 1008.0
20260508230147 24 225 6.4 16.1 0.00 1.57 1.57 69 1008.1
20260508225647 24 157 8.0 16.1 0.00 1.57 1.57 69 1008.1
20260508225147 25 180 8.0 14.5 0.00 1.57 1.57 68 1008.1
20260508224647 24 225 8.0 17.7 0.00 1.57 1.57 69 1008.1
20260508224147 24 157 9.7 17.7 0.00 1.57 1.57 68 1008.2
20260508223647 24 180 12.9 17.7 0.00 1.57 1.57 67 1008.2
20260508223147 24 157 11.3 17.7 0.00 1.57 1.57 68 1008.1
20260508222647 25 135 12.9 19.3 0.00 1.57 1.57 66 1008.1
20260508222147 25 180 6.4 17.7 0.00 1.57 1.57 66 1008.1
20260508221647 25 225 8.0 16.1 0.00 1.57 1.57 68 1008.0
20260508221147 24 157 11.3 20.9 0.00 1.57 1.57 66 1008.1
20260508220647 25 157 12.9 17.7 0.00 1.57 1.57 67 1008.0
20260508220147 25 157 9.7 14.5 0.00 1.57 1.57 66 1008.0
20260508215647 25 180 8.0 14.5 0.00 1.57 1.57 67 1007.9
20260508215147 25 180 8.0 16.1 0.00 1.57 1.57 66 1007.9
20260508214647 25 135 12.9 19.3 0.00 1.57 1.57 66 1007.9
20260508214147 25 157 9.7 17.7 0.00 1.57 1.57 67 1008.0
20260508213647 25 180 8.0 20.9 0.00 1.57 1.57 65 1007.9
20260508213147 25 180 11.3 20.9 0.00 1.57 1.57 65 1008.1
20260508212647 25 180 9.7 22.5 0.00 1.57 1.57 65 1008.4
20260508212147 25 157 9.7 25.7 0.00 1.57 1.57 66 1008.5
20260508211647 25 157 6.4 19.3 0.00 1.57 1.57 67 1008.7
20260508211147 25 202 12.9 27.4 0.00 1.57 1.57 66 1008.7
20260508210647 25 157 12.9 24.1 0.00 1.57 1.57 65 1008.9
20260508210147 25 180 8.0 19.3 0.00 1.57 1.57 66 1009.2
20260508205647 25 157 6.4 24.1 0.00 1.57 1.57 67 1009.2
20260508205147 25 157 8.0 20.9 0.00 1.57 1.57 65 1009.3
20260508204647 25 225 4.8 17.7 0.00 1.57 1.57 65 1009.5
20260508204147 25 202 8.0 20.9 0.00 1.57 1.57 66 1009.6
20260508203647 25 225 8.0 25.7 0.00 1.57 1.57 65 1009.6
20260508203147 25 180 11.3 22.5 0.00 1.57 1.57 65 1009.6
20260508202647 25 180 6.4 19.3 0.00 1.57 1.57 64 1009.6
20260508202147 25 202 1.6 11.3 0.00 1.57 1.57 65 1009.7
20260508201647 25 157 6.4 19.3 0.00 1.57 1.57 65 1009.9
20260508201147 25 180 6.4 19.3 0.00 1.57 1.57 64 1010.1
20260508200647 25 157 4.8 14.5 0.00 1.57 1.57 65 1010.1
20260508200147 25 180 4.8 20.9 0.00 1.57 1.57 63 1010.2
20260508195647 25 225 4.8 9.7 0.00 1.57 1.57 67 1010.1
20260508195147 24 157 8.0 17.7 0.00 1.57 1.57 65 1010.2
20260508194647 24 180 8.0 16.1 0.00 1.57 1.57 66 1010.2
20260508194147 24 180 8.0 16.1 0.00 1.57 1.57 66 1010.2
20260508193647 24 157 9.7 19.3 0.00 1.57 1.57 67 1010.3
20260508193147 23 180 12.9 19.3 0.00 1.57 1.57 66 1010.4
20260508192647 24 157 11.3 19.3 0.00 1.57 1.57 64 1010.4
20260508192147 24 157 8.0 17.7 0.00 1.57 1.57 64 1010.4
20260508191647 24 157 6.4 17.7 0.00 1.57 1.57 64 1010.4
20260508191147 24 157 6.4 12.9 0.00 1.57 1.57 66 1010.4
20260508190647 24 225 6.4 14.5 0.00 1.57 1.57 65 1010.4
20260508190147 24 157 8.0 16.1 0.00 1.57 1.57 64 1010.5
20260508185647 24 157 8.0 16.1 0.00 1.57 1.57 67 1010.6
20260508185147 24 157 11.3 17.7 0.00 1.57 1.57 63 1010.6
20260508184647 24 157 4.8 14.5 0.00 1.57 1.57 65 1010.7
20260508184147 23 157 4.8 12.9 0.00 1.57 1.57 65 1010.7
20260508183647 23 157 4.8 12.9 0.00 1.57 1.57 66 1010.9
20260508183147 23 180 6.4 16.1 0.00 1.57 1.57 66 1011.0
20260508182647 23 180 8.0 14.5 0.00 1.57 1.57 64 1011.0
20260508182147 23 135 9.7 17.7 0.00 1.57 1.57 66 1011.2
20260508181647 23 180 6.4 16.1 0.00 1.57 1.57 67 1011.3
20260508181147 23 157 6.4 12.9 0.00 1.57 1.57 66 1011.5
20260508180647 23 135 3.2 12.9 0.00 1.57 1.57 67 1011.6
20260508180147 22 135 8.0 16.1 0.00 1.57 1.57 65 1011.5
20260508175647 22 135 8.0 17.7 0.00 1.57 1.57 67 1011.6
20260508175147 23 112 8.0 14.5 0.00 1.57 1.57 66 1011.7
20260508174647 23 112 4.8 12.9 0.00 1.57 1.57 65 1011.9
20260508174147 23 180 1.6 11.3 0.00 1.57 1.57 67 1012.1
20260508173647 22 157 4.8 11.3 0.00 1.57 1.57 67 1012.2
20260508173147 22 180 4.8 14.5 0.00 1.57 1.57 68 1012.3
20260508172647 22 180 4.8 17.7 0.00 1.57 1.57 70 1012.5
20260508172147 22 157 6.4 14.5 0.00 1.57 1.57 68 1012.6
20260508171647 22 225 4.8 12.9 0.03 1.57 1.57 70 1012.8
20260508171147 21 157 8.0 14.5 0.05 1.57 1.57 70 1012.8
20260508170647 21 180 11.3 19.3 0.08 1.57 1.57 71 1012.9
20260508170147 21 180 8.0 17.7 0.08 1.57 1.57 72 1012.9
20260508165647 21 180 4.8 17.7 0.08 1.57 1.57 75 1013.1
20260508165147 20 180 6.4 16.1 0.08 1.57 1.57 77 1013.3
20260508164647 20 180 3.2 12.9 0.08 1.57 1.57 78 1013.3
20260508164147 19 180 8.0 20.9 0.08 1.57 1.57 77 1013.4
20260508163647 19 180 6.4 16.1 0.08 1.57 1.57 78 1013.6
20260508163147 19 180 3.2 12.9 0.08 1.57 1.57 80 1013.5
20260508162647 18 180 6.4 17.7 0.08 1.57 1.57 80 1013.6
20260508162147 18 157 4.8 11.3 0.08 1.57 1.57 80 1013.7
20260508161647 18 202 4.8 12.9 0.05 1.55 1.55 79 1013.6
20260508161147 19 180 9.7 20.9 0.03 1.52 1.52 78 1013.6
20260508160647 19 180 6.4 16.1 0.00 1.50 1.50 81 1013.7
20260508160147 18 225 4.8 12.9 0.00 1.50 1.50 81 1013.8
20260508155647 18 180 8.0 12.9 0.03 1.50 1.50 82 1013.9
20260508155147 18 157 6.4 11.3 0.03 1.50 1.50 83 1014.1
20260508154647 18 180 4.8 9.7 0.03 1.50 1.50 83 1014.2
20260508154147 18 180 4.8 9.7 0.03 1.50 1.50 84 1013.9
20260508153647 18 180 3.2 12.9 0.03 1.50 1.50 85 1014.0
20260508153147 18 157 3.2 8.0 0.03 1.50 1.50 87 1013.8
20260508152647 17 157 1.6 4.8 0.03 1.50 1.50 87 1014.0
20260508152147 17 157 3.2 6.4 0.03 1.50 1.50 87 1014.0
20260508151646 17 157 4.8 8.0 0.03 1.50 1.50 87 1014.1
20260508151147 17 157 4.8 8.0 0.03 1.50 1.50 86 1013.9
20260508150647 17 157 4.8 6.4 0.03 1.50 1.50 85 1014.2
20260508150147 17 157 4.8 12.9 0.03 1.50 1.50 85 1014.2
20260508145647 17 157 4.8 9.7 0.00 1.47 1.47 84 1014.3
20260508145146 17 180 8.0 14.5 0.00 1.47 1.47 85 1014.2
20260508144647 17 157 11.3 14.5 0.00 1.47 1.47 85 1014.1
20260508144146 17 157 9.7 14.5 0.00 1.47 1.47 85 1014.3
20260508143646 17 157 6.4 11.3 0.00 1.47 1.47 86 1014.3
20260508143146 17 135 6.4 11.3 0.00 1.47 1.47 87 1014.3
20260508142646 17 157 6.4 11.3 0.00 1.47 1.47 87 1014.4
20260508142146 17 157 6.4 11.3 0.00 1.47 1.47 88 1014.5
20260508141646 17 157 3.2 4.8 0.00 1.47 1.47 89 1014.5
20260508141146 17 157 3.2 4.8 0.00 1.47 1.47 89 1014.6
20260508140646 17 135 1.6 1.6 0.00 1.47 1.47 91 1014.8
20260508140146 17 135 1.6 6.4 0.00 1.47 1.47 91 1014.7
20260508135646 17 180 3.2 8.0 0.00 1.47 1.47 91 1014.6
20260508135146 17 157 6.4 9.7 0.00 1.47 1.47 93 1014.5
20260508134646 16 157 6.4 8.0 0.00 1.47 1.47 93 1014.5
20260508134146 16 157 4.8 8.0 0.00 1.47 1.47 94 1014.7
20260508133646 16 0 0.0 0.0 0.00 1.47 1.47 94 1014.6
20260508133146 16 0 0.0 0.0 0.00 1.47 1.47 94 1014.6
20260508132646 16 360 3.2 4.8 0.00 1.47 1.47 94 1014.7
20260508132146 16 360 3.2 4.8 0.03 1.47 1.47 94 1014.5
20260508131646 16 135 4.8 8.0 0.08 1.47 1.47 94 1014.2
20260508131146 15 135 3.2 8.0 0.10 1.47 1.47 94 1014.4
20260508130646 15 90 3.2 4.8 0.10 1.47 1.47 93 1014.2
20260508130146 15 112 1.6 3.2 0.13 1.47 1.47 93 1014.4
20260508125646 15 157 3.2 3.2 0.38 1.47 1.47 93 1014.5
20260508125146 15 0 0.0 0.0 0.51 1.47 1.47 93 1015.1
20260508124646 15 0 0.0 0.0 0.69 1.47 1.47 93 1014.8
20260508124146 15 0 0.0 0.0 0.81 1.47 1.47 93 1014.8
20260508123646 15 0 0.0 0.0 0.89 1.47 1.47 93 1014.9
20260508123146 15 0 0.0 0.0 0.91 1.47 1.47 92 1015.0
20260508122646 15 0 0.0 0.0 1.04 1.47 1.47 92 1015.0
20260508122146 15 135 1.6 4.8 1.02 1.45 1.45 92 1014.9
20260508121646 15 135 1.6 4.8 0.97 1.40 1.40 92 1014.8
20260508121146 15 135 1.6 1.6 1.04 1.37 1.37 92 1015.1
20260508120646 15 135 4.8 9.7 1.07 1.37 1.37 92 1014.5
20260508120146 15 157 6.4 12.9 1.04 1.35 1.35 92 1014.5
20260508115646 15 0 0.0 0.0 0.79 1.09 1.09 92 1015.3
20260508115146 15 202 6.4 12.9 0.66 0.97 0.97 92 1014.8
20260508114646 15 180 14.5 20.9 0.53 0.79 0.79 91 1014.0
20260508114146 15 157 14.5 20.9 0.51 0.66 0.66 91 1014.1
20260508113646 15 157 12.9 17.7 0.56 0.58 0.58 90 1014.0
20260508113146 15 157 9.7 22.5 0.56 0.56 0.56 91 1014.0
20260508112646 15 180 11.3 17.7 0.43 0.43 0.43 91 1014.2
20260508112146 15 157 9.7 19.3 0.43 0.43 0.43 92 1014.0
20260508111646 15 157 8.0 17.7 0.43 0.43 0.43 92 1014.2
20260508111146 15 180 6.4 11.3 0.33 0.33 0.33 92 1014.5
20260508110646 15 180 6.4 11.3 0.30 0.30 0.30 92 1014.5
20260508110146 15 247 6.4 14.5 0.30 0.30 0.30 92 1014.7
20260508105646 15 180 9.7 19.3 0.30 0.30 0.30 91 1014.5
20260508104731 15 157 1.6 3.2 0.28 0.28 0.28 91 1014.7
20260508104231 15 157 4.8 8.0 0.23 0.23 0.23 90 1014.6
20260508103731 15 157 1.6 3.2 0.08 0.08 0.08 90 1014.7
20260508103231 15 247 1.6 6.4 0.00 0.00 0.00 91 1015.2
20260508102731 15 315 6.4 11.3 0.00 0.00 0.00 91 1015.0
20260508102231 15 315 4.8 9.7 0.00 0.00 0.00 91 1014.2
20260508101731 15 0 0.0 0.0 0.00 0.00 0.00 91 1013.7
20260508101231 15 0 0.0 0.0 0.00 0.00 0.00 91 1013.4
20260508100731 15 0 0.0 0.0 0.00 0.00 0.00 90 1013.7
20260508100231 15 0 0.0 0.0 0.00 0.00 0.00 90 1013.5
20260508095731 15 0 0.0 0.0 0.00 0.00 0.00 90 1013.7
20260508095231 15 0 0.0 0.0 0.00 0.00 0.00 90 1013.7
20260508094731 15 0 0.0 0.0 0.00 0.00 0.00 90 1013.6
20260508094231 15 0 0.0 0.0 0.00 0.00 0.00 90 1013.7
20260508093731 15 157 1.6 4.8 0.00 0.00 0.00 90 1013.8
20260508093231 15 157 3.2 6.4 0.00 0.00 0.00 90 1013.6
20260508092731 15 22 1.6 3.2 0.00 0.00 0.00 90 1013.7
20260508092231 15 22 3.2 4.8 0.00 0.00 0.00 90 1013.7
20260508091731 15 45 1.6 4.8 0.00 0.00 0.00 90 1013.5
20260508091231 15 157 6.4 11.3 0.00 0.00 0.00 90 1013.7
20260508090731 15 157 6.4 14.5 0.00 0.00 0.00 89 1013.9
20260508090231 15 180 1.6 4.8 0.00 0.00 0.00 89 1014.4
20260508085731 15 180 0.0 3.2 0.00 0.00 0.00 88 1014.1
20260508085231 16 180 1.6 3.2 0.00 0.00 0.00 88 1014.2
20260508084731 16 157 1.6 3.2 0.00 0.00 0.00 88 1014.5
20260508084231 16 157 4.8 8.0 0.00 0.00 0.00 87 1013.9
20260508083731 16 157 1.6 3.2 0.00 0.00 0.00 87 1014.1
20260508083231 16 157 0.0 3.2 0.00 0.00 0.00 87 1014.3
20260508082731 16 247 0.0 3.2 0.00 0.00 0.00 87 1014.6
20260508082231 16 180 9.7 20.9 0.00 0.00 0.00 87 1014.2
20260508081731 15 180 11.3 19.3 0.00 0.00 0.00 88 1014.0
20260508081231 15 157 1.6 8.0 0.00 0.00 0.00 89 1014.4
20260508080731 15 157 0.0 6.4 0.00 0.00 0.00 90 1014.8
20260508080231 15 157 1.6 1.6 0.00 0.00 0.00 90 1015.2
20260508075731 15 0 0.0 0.0 0.00 0.00 0.00 90 1015.4
20260508075231 15 0 0.0 0.0 0.00 0.00 0.00 90 1015.0
20260508074731 15 0 0.0 0.0 0.00 0.00 0.00 90 1015.2
20260508074231 15 0 0.0 0.0 0.00 0.00 0.00 90 1015.4
20260508073731 15 157 1.6 3.2 0.00 0.00 0.00 90 1015.2
20260508073231 14 157 1.6 3.2 0.00 0.00 0.00 90 1014.7
20260508072731 14 0 0.0 0.0 0.00 0.00 0.00 90 1014.8
20260508072231 14 0 0.0 0.0 0.00 0.00 0.00 90 1015.1
20260508071731 14 0 0.0 0.0 0.00 0.00 0.00 89 1014.8
20260508071231 14 0 0.0 0.0 0.00 0.00 0.00 88 1014.9
20260508070731 15 157 0.0 1.6 0.00 0.00 0.00 88 1015.1
20260508070231 15 157 1.6 3.2 0.00 0.00 0.00 89 1015.3
20260508065731 15 157 1.6 3.2 0.00 0.00 0.00 89 1015.3
20260508065231 15 0 0.0 0.0 0.00 0.00 0.00 89 1015.5